QPF
0.00 0.00 0.00 0.00 0.00 0.00 0.00 0.00 0.00 0.00 0.00 0.00 0.00 0.00 0.00 0.00 0.00 0.00 0.00 0.00 0.00 0.00 0.00 0.00 0.00 0.00 0.00 0.00 0.00 0.00 0.00 0.00 0.00 0.00 0.00 0.00 0.00 0.00 0.00 0.00 0.00 0.00 0.00
0.00 0.00 0.00 0.00 0.00 0.00 0.00 0.00 0.00 0.00 0.00 0.00 0.00 0.00 0.00 0.00 0.00 0.00 0.00 0.00 0.00 0.00 0.00 0.00 0.00 0.00 0.00 0.00 0.00 0.00 0.00 0.00 0.00 0.00 0.00 0.00 0.00 0.00 0.00 0.00 0.00 0.00 0.00
0.00 0.00 0.00 0.00 0.00 0.00 0.00 0.00 0.00 0.00 0.00 0.00 0.00 0.00 0.00 0.00 0.00 0.00 0.00 0.00 0.00 0.00 0.00 0.00 0.00 0.00 0.00 0.00 0.00 0.00 0.00 0.00 0.00 0.00 0.00 0.00 0.00 0.00 0.00 0.00 0.00 0.00 0.00
0.00 0.00 0.00 0.00 0.00 0.00 0.00 0.00 0.00 0.00 0.00 0.00 0.00 0.00 0.00 0.00 0.00 0.00 0.00 0.00 0.00 0.00 0.00 0.00 0.00 0.00 0.00 0.00 0.00 0.00 0.00 0.00 0.00 0.00 0.00 0.00 0.00 0.00 0.00 0.00 0.00 0.00 0.00
0.00 0.00 0.00 0.00 0.00 0.00 0.00 0.00 0.00 0.00 0.00 0.00 0.00 0.00 0.00 0.00 0.00 0.00 0.00 0.00 0.00 0.00 0.00 0.00 0.00 0.00 0.00 0.00 0.00 0.00 0.00 0.00 0.00 0.00 0.00 0.00 0.00 0.00 0.00 0.00 0.00 0.00 0.00
0.00 0.00 0.00 0.00 0.00 0.00 0.00 0.00 0.00 0.00 0.00 0.00 0.00 0.00 0.00 0.00 0.00 0.00 0.00 0.00 0.00 0.00 0.00 0.00 0.00 0.00 0.00 0.00 0.00 0.00 0.00 0.00 0.00 0.00 0.00 0.00 0.00 0.00 0.00 0.00 0.00 0.00 0.00
0.00 0.00 0.00 0.00 0.00 0.00 0.00 0.00 0.00 0.00 0.00 0.00 0.00 0.00 0.00 0.00 0.00 0.00 0.00 0.00 0.00 0.00 0.00 0.00 0.00 0.00 0.00 0.00 0.00 0.00 0.00 0.00 0.00 0.00 0.00 0.00 0.00 0.00 0.00 0.00 0.00 0.00 0.00
0.00 0.00 0.00 0.00 0.00 0.00 0.00 0.00 0.00 0.00 0.00 0.00 0.00 0.00 0.00 0.00 0.00 0.00 0.00 0.00 0.00 0.00 0.00 0.00 0.00 0.00 0.00 0.00 0.00 0.00 0.00 0.00 0.00 0.00 0.00 0.00 0.00 0.00 0.00 0.00 0.00 0.00 0.00
0.00 0.00 0.00 0.00 0.00 0.00 0.00 0.00 0.00 0.00 0.00 0.00 0.00 0.00 0.00 0.00 0.00 0.00 0.00 0.00 0.00 0.00 0.00 0.00 0.00 0.00 0.00 0.00 0.00 0.00 0.00 0.00 0.00 0.00 0.00 0.00 0.00 0.00 0.00 0.00 0.00 0.00 0.00
0.00 0.00 0.00 0.00 0.00 0.00 0.00 0.00 0.00 0.00 0.00 0.00 0.00 0.00 0.00 0.00 0.00 0.00 0.00 0.00 0.00 0.00 0.00 0.00 0.00 0.00 0.00 0.00 0.00 0.00 0.00 0.00 0.00 0.00 0.00 0.00 0.00 0.00 0.00 0.00 0.00 0.00 0.00
0.00 0.00 0.00 0.00 0.00 0.00 0.00 0.00 0.00 0.00 0.00 0.00 0.00 0.00 0.00 0.00 0.00 0.00 0.00 0.00 0.00 0.00 0.00 0.00 0.00 0.00 0.00 0.00 0.00 0.00 0.00 0.00 0.00 0.00 0.00 0.00 0.00 0.00 0.00 0.00 0.00 0.00 0.00
0.00 0.00 0.00 0.00 0.00 0.00 0.00 0.00 0.00 0.00 0.00 0.00 0.00 0.00 0.00 0.00 0.00 0.00 0.00 0.00 0.00 0.00 0.00 0.00 0.00 0.00 0.00 0.00 0.00 0.00 0.00 0.00 0.00 0.00 0.00 0.00 0.00 0.00 0.00 0.00 0.00 0.00 0.00
0.00 0.00 0.00 0.00 0.00 0.00 0.00 0.00 0.00 0.00 0.00 0.00 0.00 0.00 0.00 0.00 0.00 0.00 0.00 0.00 0.00 0.00 0.00 0.00 0.00 0.00 0.00 0.00 0.00 0.00 0.00 0.00 0.00 0.00 0.00 0.00 0.00 0.00 0.00 0.00 0.00 0.00 0.00
0.00 0.00 0.00 0.00 0.00 0.00 0.00 0.00 0.00 0.00 0.00 0.00 0.00 0.00 0.00 0.00 0.00 0.00 0.00 0.00 0.00 0.00 0.00 0.00 0.00 0.00 0.00 0.00 0.00 0.00 0.00 0.00 0.00 0.00 0.00 0.00 0.00 0.00 0.00 0.00 0.00 0.00 0.00
0.00 0.00 0.00 0.00 0.00 0.00 0.00 0.00 0.00 0.00 0.00 0.00 0.00 0.00 0.00 0.00 0.00 0.00 0.00 0.00 0.00 0.00 0.00 0.00 0.00 0.00 0.00 0.00 0.00 0.00 0.00 0.00 0.00 0.00 0.00 0.00 0.00 0.00 0.00 0.00 0.00 0.00 0.00
0.00 0.00 0.00 0.00 0.00 0.00 0.00 0.00 0.00 0.00 0.00 0.00 0.00 0.00 0.00 0.00 0.00 0.00 0.00 0.00 0.00 0.00 0.00 0.00 0.00 0.00 0.00 0.00 0.00 0.00 0.00 0.00 0.00 0.00 0.00 0.00 0.00 0.00 0.00 0.00 0.00 0.00 0.00
0.00 0.00 0.00 0.00 0.00 0.00 0.00 0.00 0.00 0.00 0.00 0.00 0.00 0.00 0.00 0.00 0.00 0.00 0.00 0.00 0.00 0.00 0.00 0.00 0.00 0.00 0.00 0.00 0.00 0.00 0.00 0.00 0.00 0.00 0.00 0.00 0.00 0.00 0.00 0.00 0.00 0.00 0.00
0.00 0.00 0.00 0.00 0.00 0.00 0.00 0.00 0.00 0.00 0.00 0.00 0.00 0.00 0.00 0.00 0.00 0.00 0.00 0.00 0.00 0.00 0.00 0.00 0.00 0.00 0.00 0.00 0.00 0.00 0.00 0.00 0.00 0.00 0.00 0.00 0.00 0.00 0.00 0.00 0.00 0.00 0.00
0.00 0.00 0.00 0.00 0.00 0.00 0.00 0.00 0.00 0.00 0.00 0.00 0.00 0.00 0.00 0.00 0.00 0.00 0.00 0.00 0.00 0.00 0.00 0.00 0.00 0.00 0.00 0.00 0.00 0.00 0.00 0.00 0.00 0.00 0.00 0.00 0.00 0.00 0.00 0.00 0.00 0.00 0.00
0.00 0.00 0.00 0.00 0.00 0.00 0.00 0.00 0.00 0.00 0.00 0.00 0.00 0.00 0.00 0.00 0.00 0.00 0.00 0.00 0.00 0.00 0.00 0.00 0.00 0.00 0.00 0.00 0.00 0.00 0.00 0.00 0.00 0.00 0.00 0.00 0.00 0.00 0.00 0.00 0.00 0.00 0.00
0.00 0.00 0.00 0.00 0.00 0.00 0.00 0.00 0.00 0.00 0.00 0.00 0.00 0.00 0.00 0.00 0.00 0.00 0.00 0.00 0.00 0.00 0.00 0.00 0.00 0.00 0.00 0.00 0.00 0.00 0.00 0.00 0.00 0.00 0.00 0.00 0.00 0.00 0.00 0.00 0.00 0.00 0.00
0.00 0.00 0.00 0.00 0.00 0.00 0.00 0.00 0.00 0.00 0.00 0.00 0.00 0.00 0.00 0.00 0.00 0.00 0.00 0.00 0.00 0.00 0.00 0.00 0.00 0.00 0.00 0.00 0.00 0.00 0.00 0.00 0.00 0.00 0.00 0.00 0.00 0.00 0.00 0.00 0.00 0.00 0.00
0.00 0.00 0.00 0.00 0.00 0.00 0.00 0.00 0.00 0.00 0.00 0.00 0.00 0.00 0.00 0.00 0.00 0.00 0.00 0.00 0.00 0.00 0.00 0.00 0.00 0.00 0.00 0.00 0.00 0.00 0.00 0.00 0.00 0.00 0.00 0.00 0.00 0.00 0.00 0.00 0.00 0.00 0.00
0.00 0.00 0.00 0.00 0.00 0.00 0.00 0.00 0.00 0.00 0.00 0.00 0.00 0.00 0.00 0.00 0.00 0.00 0.00 0.00 0.00 0.00 0.00 0.00 0.00 0.00 0.00 0.00 0.00 0.00 0.00 0.00 0.00 0.00 0.00 0.00 0.00 0.00 0.00 0.00 0.00 0.00 0.00
0.00 0.00 0.00 0.00 0.00 0.00 0.00 0.00 0.00 0.00 0.00 0.00 0.00 0.00 0.00 0.00 0.00 0.00 0.00 0.00 0.00 0.00 0.00 0.00 0.00 0.00 0.00 0.00 0.00 0.00 0.00 0.00 0.00 0.00 0.00 0.00 0.00 0.00 0.00 0.00 0.00 0.00 0.00
0.00 0.00 0.00 0.00 0.00 0.00 0.00 0.00 0.00 0.00 0.00 0.00 0.00 0.00 0.00 0.00 0.00 0.00 0.00 0.00 0.00 0.00 0.00 0.00 0.00 0.00 0.00 0.00 0.00 0.00 0.00 0.00 0.00 0.00 0.00 0.00 0.00 0.00 0.00 0.00 0.00 0.00 0.00
MSLP
1020.25 1019.85 1019.55 1019.37 1019.03 1018.72 1018.53 1018.26 1018.28 1018.11 1018.32 1018.55 1018.55 1017.62 1018.30 1018.16 1018.15 1017.76 1017.77 1017.39 1016.86 1016.66 1016.52 1016.40 1016.52 1016.51 1016.40 1016.21 1015.84 1015.39 1015.12 1014.61 1014.18 1013.88 1013.38 1012.76 1012.28 1012.28 1012.12 1011.84 1011.72 1011.65 1011.40
1020.37 1019.88 1019.72 1019.35 1019.04 1018.71 1018.55 1017.76 1018.02 1018.12 1018.25 1018.31 1018.23 1018.38 1018.24 1017.97 1017.92 1017.76 1017.47 1017.40 1017.08 1016.64 1016.40 1016.43 1016.42 1016.57 1016.39 1016.16 1015.90 1015.56 1015.41 1014.89 1014.42 1014.27 1013.87 1013.40 1012.84 1012.33 1012.05 1011.96 1011.91 1011.85 1011.74
1020.66 1020.25 1019.76 1019.48 1019.02 1018.74 1018.53 1017.99 1017.83 1017.93 1017.85 1017.82 1017.98 1018.06 1018.12 1018.05 1017.96 1017.67 1017.55 1017.42 1017.18 1016.76 1016.44 1016.52 1016.35 1016.52 1016.30 1016.18 1016.01 1015.63 1015.59 1015.16 1014.67 1014.39 1014.28 1013.75 1013.67 1013.19 1012.24 1012.05 1012.03 1012.00 1011.97
1020.81 1020.49 1020.00 1019.63 1019.24 1018.72 1018.42 1017.93 1017.86 1017.90 1017.69 1017.69 1017.79 1018.01 1018.09 1018.26 1018.05 1017.94 1017.68 1017.51 1017.18 1016.85 1016.56 1016.54 1016.36 1016.41 1016.18 1015.96 1015.82 1015.55 1015.54 1015.41 1015.09 1014.40 1013.98 1014.12 1014.12 1013.90 1013.17 1012.54 1012.21 1012.21 1012.02
1021.08 1020.67 1020.24 1019.89 1019.26 1018.72 1018.36 1018.00 1017.76 1017.49 1017.31 1017.42 1017.59 1017.69 1017.72 1017.73 1017.62 1017.64 1017.59 1017.44 1017.14 1016.79 1016.59 1016.45 1016.32 1016.31 1015.97 1015.62 1015.57 1015.45 1015.37 1015.24 1015.03 1014.75 1014.30 1014.03 1013.95 1014.11 1014.06 1013.16 1012.71 1012.37 1012.01
1020.88 1020.53 1020.13 1019.72 1019.22 1018.69 1018.38 1018.02 1017.68 1017.21 1016.85 1016.85 1016.91 1017.20 1017.37 1017.32 1017.47 1017.47 1017.47 1017.29 1017.04 1016.70 1016.43 1016.32 1016.26 1016.04 1015.75 1015.48 1015.31 1015.14 1015.03 1014.93 1014.86 1014.60 1014.20 1014.12 1014.14 1013.95 1013.88 1013.34 1012.77 1012.60 1011.94
1020.99 1020.74 1020.23 1019.69 1019.31 1018.84 1018.33 1017.97 1017.66 1017.19 1016.68 1016.49 1016.41 1016.46 1016.61 1016.82 1016.99 1017.00 1017.10 1017.06 1016.91 1016.66 1016.44 1016.36 1016.17 1015.92 1015.54 1015.27 1015.05 1014.87 1014.68 1014.60 1014.56 1014.27 1014.15 1013.91 1013.86 1013.86 1013.72 1013.45 1012.76 1012.46 1011.85
1020.96 1020.66 1020.11 1019.67 1019.22 1018.74 1018.27 1017.92 1017.49 1017.01 1016.55 1016.27 1016.07 1015.89 1015.88 1016.13 1016.31 1016.46 1016.61 1016.64 1016.58 1016.37 1016.12 1015.97 1015.86 1015.63 1015.31 1015.13 1014.84 1014.63 1014.50 1014.36 1014.26 1014.16 1014.03 1013.93 1013.82 1013.71 1013.68 1013.38 1012.89 1012.01 1011.64
1020.71 1020.42 1019.83 1019.41 1019.08 1018.72 1018.29 1017.91 1017.39 1016.89 1016.45 1016.11 1015.82 1015.64 1015.54 1015.64 1015.74 1015.87 1016.08 1016.16 1016.12 1016.05 1015.93 1015.81 1015.60 1015.35 1015.16 1014.94 1014.71 1014.55 1014.32 1014.24 1014.10 1013.98 1013.86 1013.77 1013.64 1013.54 1013.37 1013.10 1012.85 1012.45 1011.51
1020.54 1020.29 1019.82 1019.42 1019.06 1018.73 1018.29 1017.74 1017.31 1016.84 1016.26 1015.82 1015.60 1015.39 1015.22 1015.22 1015.32 1015.52 1015.65 1015.65 1015.60 1015.56 1015.47 1015.34 1015.23 1015.08 1014.89 1014.72 1014.59 1014.42 1014.24 1014.18 1014.14 1013.92 1013.83 1013.74 1013.64 1013.48 1013.18 1012.82 1012.47 1012.20 1011.82
1020.55 1020.29 1019.87 1019.47 1019.11 1018.65 1018.26 1017.83 1017.37 1016.85 1016.20 1015.68 1015.23 1015.05 1014.96 1014.91 1014.97 1015.11 1015.15 1015.18 1015.17 1015.13 1015.11 1015.05 1015.00 1014.89 1014.74 1014.62 1014.53 1014.38 1014.20 1014.03 1013.82 1013.82 1013.52 1013.36 1013.59 1013.59 1013.39 1013.07 1012.52 1012.10 1011.75
1020.35 1020.14 1019.82 1019.48 1019.09 1018.64 1018.18 1017.87 1017.44 1016.97 1016.32 1015.67 1015.21 1014.85 1014.57 1014.52 1014.63 1014.75 1014.76 1014.78 1014.72 1014.65 1014.64 1014.61 1014.58 1014.50 1014.42 1014.33 1014.28 1014.21 1014.07 1014.03 1013.91 1013.78 1013.66 1013.55 1013.45 1013.47 1013.27 1012.97 1012.54 1012.08 1011.73
1020.11 1020.04 1019.66 1019.45 1019.20 1018.88 1018.41 1017.92 1017.42 1017.04 1016.43 1015.85 1015.26 1014.67 1014.35 1014.25 1014.22 1014.15 1014.04 1014.03 1014.09 1014.11 1014.11 1014.11 1014.12 1014.08 1013.99 1013.96 1013.89 1013.86 1013.77 1013.66 1013.56 1013.45 1013.43 1013.28 1013.19 1013.02 1012.83 1012.53 1012.14 1011.67 1011.15
1019.80 1019.63 1019.46 1019.28 1018.96 1018.63 1018.28 1017.96 1017.46 1017.00 1016.57 1016.04 1015.50 1014.93 1014.49 1014.16 1013.99 1013.86 1013.79 1013.75 1013.72 1013.71 1013.66 1013.65 1013.62 1013.51 1013.38 1013.30 1013.19 1013.19 1013.16 1013.09 1012.95 1012.97 1012.93 1012.87 1012.78 1012.56 1012.30 1011.99 1011.58 1011.05 1010.63
1019.47 1019.38 1019.18 1018.96 1018.76 1018.61 1018.24 1017.78 1017.30 1016.89 1016.51 1016.14 1015.72 1015.27 1014.66 1014.26 1014.03 1013.86 1013.73 1013.59 1013.50 1013.40 1013.33 1013.30 1013.19 1013.09 1013.08 1012.89 1012.80 1012.73 1012.61 1012.58 1012.57 1012.48 1012.43 1012.31 1012.16 1011.93 1011.66 1011.20 1010.89 1010.68 1010.38
1019.09 1018.94 1018.83 1018.71 1018.52 1018.35 1018.06 1017.65 1017.29 1016.87 1016.49 1016.14 1015.81 1015.30 1014.78 1014.31 1013.99 1013.73 1013.53 1013.37 1013.21 1013.03 1012.89 1012.80 1012.75 1012.57 1012.36 1012.15 1012.08 1012.04 1012.17 1012.14 1012.14 1012.10 1011.98 1011.86 1011.57 1011.23 1010.85 1010.49 1010.34 1010.32 1010.08
1018.68 1018.52 1018.51 1018.35 1018.23 1018.05 1017.82 1017.62 1017.27 1016.90 1016.52 1016.16 1015.73 1015.28 1014.85 1014.47 1014.14 1013.71 1013.44 1013.17 1012.93 1012.66 1012.53 1012.40 1012.26 1011.95 1011.69 1011.47 1011.29 1011.27 1011.23 1011.27 1011.29 1011.24 1011.23 1011.14 1010.91 1010.66 1010.45 1010.18 1009.97 1009.78 1009.82
1018.18 1018.19 1018.16 1018.01 1017.94 1017.73 1017.55 1017.36 1017.11 1016.85 1016.55 1016.23 1015.85 1015.33 1014.86 1014.36 1013.88 1013.55 1013.24 1012.98 1012.71 1012.55 1012.27 1012.02 1011.70 1011.41 1011.06 1010.82 1010.62 1010.57 1010.59 1010.68 1010.62 1010.50 1010.38 1010.42 1010.32 1010.18 1009.97 1009.79 1009.71 1009.52 1009.41
1017.61 1017.65 1017.69 1017.66 1017.58 1017.57 1017.47 1017.37 1017.08 1016.85 1016.55 1016.29 1015.97 1015.57 1015.20 1014.81 1014.37 1013.91 1013.41 1012.91 1012.49 1012.25 1012.01 1011.68 1011.36 1011.16 1010.61 1010.32 1009.98 1009.84 1009.84 1009.80 1009.77 1009.80 1009.75 1009.69 1009.63 1009.50 1009.30 1009.09 1009.03 1008.88 1008.88
1016.99 1016.99 1017.03 1017.21 1017.31 1017.18 1017.18 1017.15 1016.97 1016.74 1016.42 1016.06 1015.83 1015.52 1015.20 1014.87 1014.38 1013.98 1013.52 1013.02 1012.64 1012.23 1011.86 1011.40 1011.12 1010.70 1010.26 1009.83 1009.47 1009.23 1009.23 1009.06 1008.93 1008.83 1008.77 1008.75 1008.66 1008.73 1008.68 1008.60 1008.52 1008.36 1008.35
1016.66 1016.54 1016.69 1016.96 1016.91 1016.82 1016.74 1016.80 1016.69 1016.60 1016.16 1015.88 1015.60 1015.26 1014.92 1014.69 1014.19 1013.88 1013.46 1013.03 1012.58 1012.11 1011.65 1011.17 1010.58 1010.21 1009.90 1009.32 1008.88 1008.68 1008.57 1008.25 1008.06 1007.92 1007.80 1007.69 1007.63 1007.62 1007.83 1007.90 1008.03 1007.98 1008.07
1016.22 1016.25 1016.61 1016.69 1016.67 1016.62 1016.48 1016.44 1016.36 1015.77 1015.57 1015.40 1015.20 1014.95 1014.62 1014.27 1013.82 1013.53 1013.03 1012.64 1012.27 1011.85 1011.36 1010.89 1010.24 1009.65 1009.12 1008.79 1008.42 1008.06 1007.78 1007.54 1007.37 1006.99 1006.84 1006.82 1006.89 1006.91 1006.94 1007.06 1007.09 1007.14 1007.18
1016.13 1016.08 1016.23 1016.28 1016.18 1016.21 1016.15 1016.08 1015.41 1015.32 1015.23 1015.11 1014.82 1014.51 1014.26 1013.99 1013.59 1013.26 1012.74 1012.37 1012.03 1011.70 1011.35 1010.79 1010.13 1009.39 1008.71 1008.25 1007.78 1007.52 1006.97 1006.47 1006.22 1005.99 1005.87 1006.00 1006.03 1005.99 1006.10 1006.26 1006.36 1006.47 1006.86
1015.94 1016.06 1016.16 1016.09 1015.89 1015.58 1015.56 1015.39 1015.04 1014.72 1014.77 1014.63 1014.31 1013.94 1013.74 1013.43 1013.11 1012.83 1012.44 1012.01 1011.58 1011.14 1010.71 1010.27 1009.71 1009.04 1008.51 1007.98 1007.35 1006.97 1006.76 1006.45 1005.81 1005.04 1004.70 1004.81 1005.02 1005.16 1005.37 1005.58 1005.80 1006.08 1006.28
1015.64 1015.77 1015.86 1015.72 1015.47 1015.09 1014.66 1014.41 1014.37 1014.29 1014.28 1014.03 1013.79 1013.48 1013.16 1012.78 1012.37 1012.00 1011.70 1011.32 1010.84 1010.55 1010.12 1009.64 1009.28 1008.89 1008.16 1007.54 1006.99 1006.33 1005.92 1005.69 1005.37 1004.94 1004.79 1004.47 1004.40 1004.49 1004.71 1004.94 1005.21 1005.49 1005.67
1015.57 1015.64 1015.60 1015.26 1014.81 1014.29 1013.88 1013.50 1013.65 1013.83 1013.73 1013.53 1013.20 1012.86 1012.57 1012.12 1011.80 1011.50 1010.93 1010.54 1010.08 1009.64 1009.22 1008.77 1008.51 1007.81 1007.35 1006.72 1006.18 1005.67 1004.95 1004.37 1003.88 1003.57 1003.79 1003.88 1003.80 1003.75 1003.86 1004.16 1004.34 1004.49 1004.78
Thickness
5637 5635 5630 5626 5625 5624 5620 5616 5608 5598 5585 5569 5554 5545 5527 5517 5514 5522 5531 5546 5561 5571 5581 5588 5590 5594 5599 5602 5607 5611 5613 5616 5619 5619 5620 5622 5624 5621 5621 5622 5622 5621 5622
5631 5631 5625 5623 5620 5618 5614 5615 5604 5592 5579 5566 5553 5537 5527 5521 5518 5522 5531 5541 5554 5566 5574 5579 5585 5587 5591 5595 5598 5601 5601 5605 5608 5607 5607 5608 5612 5614 5615 5613 5613 5611 5611
5625 5624 5621 5618 5615 5612 5609 5607 5600 5589 5579 5569 5555 5543 5532 5527 5524 5527 5532 5542 5551 5561 5569 5573 5578 5581 5584 5587 5588 5591 5592 5596 5598 5599 5599 5600 5597 5601 5607 5607 5605 5603 5601
5617 5617 5616 5613 5610 5609 5604 5602 5595 5587 5579 5568 5558 5548 5538 5532 5531 5530 5536 5544 5551 5558 5564 5568 5573 5575 5579 5581 5582 5584 5584 5585 5587 5592 5595 5593 5591 5593 5590 5597 5598 5595 5595
5609 5609 5608 5607 5605 5605 5601 5597 5593 5588 5581 5572 5562 5554 5547 5541 5540 5540 5542 5546 5552 5556 5560 5564 5568 5569 5573 5577 5577 5578 5579 5580 5580 5581 5586 5588 5586 5581 5582 5586 5585 5589 5589
5606 5606 5606 5604 5603 5601 5598 5595 5591 5588 5584 5578 5570 5561 5554 5551 5546 5547 5547 5550 5553 5557 5560 5562 5563 5565 5569 5572 5574 5575 5575 5576 5575 5577 5580 5579 5578 5579 5579 5585 5585 5579 5583
5598 5599 5599 5598 5598 5596 5594 5592 5589 5586 5584 5580 5575 5569 5563 5557 5554 5552 5550 5552 5553 5556 5557 5558 5559 5562 5565 5567 5569 5571 5572 5572 5571 5573 5573 5573 5571 5571 5572 5574 5578 5576 5577
5593 5594 5595 5594 5593 5593 5591 5588 5586 5584 5584 5581 5577 5575 5570 5564 5560 5557 5554 5553 5553 5554 5556 5557 5558 5559 5561 5562 5564 5565 5566 5566 5566 5566 5565 5564 5563 5564 5563 5566 5571 5578 5578
5589 5589 5589 5589 5588 5586 5585 5583 5581 5580 5580 5579 5577 5575 5571 5567 5564 5561 5557 5554 5553 5554 5554 5554 5555 5556 5557 5558 5558 5558 5559 5559 5559 5558 5558 5557 5557 5556 5556 5557 5559 5563 5571
5583 5582 5581 5580 5579 5578 5577 5577 5577 5576 5577 5576 5574 5573 5571 5568 5564 5560 5557 5555 5554 5553 5552 5552 5552 5552 5553 5553 5552 5552 5552 5551 5549 5551 5550 5550 5549 5549 5549 5550 5551 5553 5556
5573 5573 5571 5570 5569 5569 5569 5569 5569 5570 5571 5571 5572 5570 5568 5566 5563 5560 5557 5555 5553 5551 5550 5549 5548 5548 5547 5547 5546 5545 5545 5545 5545 5543 5545 5544 5540 5537 5536 5538 5541 5544 5545
5567 5564 5562 5561 5561 5561 5561 5560 5560 5559 5562 5563 5564 5565 5564 5562 5559 5556 5554 5553 5551 5550 5548 5546 5544 5543 5542 5541 5540 5538 5538 5536 5535 5534 5533 5532 5532 5528 5527 5528 5529 5531 5533
5558 5555 5554 5552 5551 5551 5550 5551 5551 5551 5552 5553 5556 5558 5558 5555 5553 5552 5552 5550 5548 5545 5543 5540 5538 5536 5535 5534 5532 5530 5529 5528 5527 5525 5523 5522 5521 5520 5519 5520 5520 5522 5527
5553 5550 5546 5543 5541 5542 5541 5541 5542 5543 5542 5542 5543 5545 5547 5548 5546 5545 5543 5541 5540 5537 5536 5534 5532 5530 5528 5527 5526 5524 5522 5520 5519 5517 5515 5513 5511 5510 5510 5511 5512 5516 5517
5546 5542 5539 5536 5534 5533 5532 5532 5532 5533 5533 5532 5532 5533 5536 5537 5537 5536 5534 5533 5532 5530 5527 5524 5523 5521 5519 5518 5516 5514 5513 5511 5509 5507 5505 5504 5503 5502 5503 5505 5505 5505 5506
5540 5537 5533 5531 5529 5526 5525 5525 5523 5523 5523 5523 5523 5524 5525 5526 5526 5525 5524 5523 5523 5521 5520 5518 5516 5514 5513 5512 5511 5508 5503 5501 5499 5497 5496 5494 5494 5495 5496 5497 5495 5493 5493
5535 5531 5527 5524 5522 5520 5518 5516 5515 5514 5514 5514 5515 5515 5515 5514 5514 5514 5513 5513 5512 5511 5509 5508 5506 5505 5503 5504 5503 5501 5498 5495 5492 5490 5488 5486 5486 5485 5484 5484 5483 5482 5480
5526 5522 5518 5515 5512 5510 5507 5505 5506 5505 5503 5502 5502 5503 5504 5505 5505 5505 5505 5503 5502 5500 5499 5498 5497 5496 5496 5497 5496 5493 5489 5484 5482 5481 5480 5476 5474 5473 5473 5471 5468 5468 5466
5518 5513 5509 5506 5502 5498 5496 5493 5492 5490 5490 5489 5488 5488 5488 5488 5489 5489 5491 5492 5492 5490 5488 5487 5486 5484 5484 5485 5485 5483 5479 5477 5474 5471 5469 5467 5464 5463 5462 5461 5458 5456 5452
5511 5507 5503 5498 5492 5489 5485 5481 5480 5476 5476 5475 5473 5472 5471 5471 5472 5473 5474 5475 5475 5474 5474 5473 5470 5469 5469 5468 5470 5470 5468 5466 5464 5462 5459 5458 5456 5451 5449 5447 5444 5441 5437
5502 5499 5494 5487 5483 5480 5476 5471 5467 5464 5464 5461 5460 5459 5458 5456 5457 5455 5455 5455 5456 5456 5457 5457 5456 5453 5452 5453 5455 5454 5455 5455 5454 5452 5449 5446 5446 5442 5436 5433 5427 5424 5420
5491 5487 5479 5474 5468 5464 5462 5459 5454 5456 5452 5449 5446 5444 5443 5442 5443 5441 5440 5439 5439 5439 5441 5440 5441 5440 5439 5438 5437 5437 5438 5439 5439 5440 5436 5431 5430 5428 5423 5419 5416 5413 5409
5474 5470 5465 5460 5453 5449 5446 5443 5442 5440 5437 5432 5431 5428 5426 5424 5424 5424 5424 5422 5419 5418 5418 5419 5422 5424 5424 5422 5421 5422 5423 5425 5425 5427 5423 5417 5415 5414 5409 5404 5400 5397 5390
5457 5452 5447 5443 5440 5435 5431 5427 5427 5425 5421 5418 5416 5415 5412 5410 5407 5404 5403 5403 5400 5401 5400 5400 5401 5403 5404 5402 5402 5401 5399 5399 5404 5410 5411 5406 5400 5397 5392 5387 5382 5378 5375
5439 5434 5428 5425 5423 5420 5418 5414 5408 5405 5403 5403 5400 5398 5396 5393 5392 5390 5387 5384 5384 5380 5379 5380 5378 5378 5384 5383 5381 5383 5387 5383 5381 5384 5385 5384 5381 5378 5373 5368 5364 5360 5359
5420 5414 5409 5406 5406 5406 5406 5402 5390 5383 5384 5385 5383 5380 5378 5376 5373 5371 5373 5370 5369 5368 5366 5363 5359 5364 5362 5363 5364 5366 5369 5371 5372 5372 5369 5365 5362 5362 5359 5352 5351 5349 5349